Terug naar catalogus

STARLINK-33792

ActiefCommunicatieVLEO
NORAD 63506·PAYLOAD·🇺🇸 United States

Gelanceerd Apr 7, 2025 vanaf Vandenberg Space Force Base

Loading…

Volgende Passages (komende 24 uur)

TLE

VersSource: CelesTrak SupGP

Epoch: Sep 15, 2026, 02:39 UTC

1 63506C 25071P   26258.11090278  .00071849  00000+0  21232-2 0  2584
2 63506  53.1576 338.6715 0001188  95.5688 170.9318 15.34348819    17

Volg STARLINK-33792 in realtime met AllMySat

Download on the App Store